Weather in Barmouth

United Kingdom     52°43′32″N   4°03′17″W
temp.,
°C
wind,
m/s
gust,
m/s
humid.,
%
clouds,
%
prec.,
mm/h
press.,
hPa
HPBL,
m
12 may, wed
wed1201:00+6w128620 0.4 1006135
04:00+5sse128480 0.0 1006207
07:00+6e2288100 0.0 100685
10:00+8ssw468754 0.4 1007608
13:00+10wsw457240 0.8 1007914
16:00+10wsw3469100 0.1 1008626
19:00+9w1171100 0.1 1008318
22:00+7nne1178100 0.0 100947
13 may, thu
thu1301:00+8ne2374100 0.0 100884
04:00+7e1284100 0.3 100866
07:00+7n3494100 4.3 1008183
10:00+8nne4790100 2.2 1008369
13:00+10n5679100 2.8 1008798
16:00+11n4675100 0.2 1008674
19:00+10n3581100 0.3 1008441
22:00+8n2392100 2.2 1009122
14 may, fri
fri1401:00+8ne239299 2.4 1009107
04:00+7ene3392100 0.0 100967
07:00+7e238969 0.0 1010105
10:00+10sse117463 0.0 1010560
13:00+12sw126646 0.2 1009900
16:00+11sse117782 0.6 1008216
19:00+11sw348889 1.6 1008379
22:00+9s1292100 0.8 1007135
15 may, sat
sat1501:00+8sse2291100 0.9 1006107
04:00+8e2291100 0.0 100470
07:00+8ese2389100 0.1 1003164
10:00+8ese4988100 0.9 1002913
13:00+9ssw589244 1.6 1002633
16:00+10sw7109141 1.1 1002737
19:00+9sw69917 1.7 1002679
22:00+8ssw5109435 0.5 1003462
16 may, sun
sun1601:00+8s489477 1.1 1003361
04:00+8s379459 0.7 1002358
07:00+8s469115 1.3 1002393
10:00+10ssw5880100 0.4 1001876
13:00+11sw697591 1.0 10011087
16:00+11sw71084100 1.1 10001110
19:00+10ssw61090100 3.0 999870
22:00+8ssw61094100 2.2 1000668